Location: Newark
(46.1292°N, 1.0086°W)
Time: 08:54:18
(UTC+00:00)

Transit 4A - Pass Details

Date: 24 November 2019
Orbit: 870 x 975 km, 66.8° (Epoch: 08 December)

Event Time Altitude Azimuth Distance (km) Brightness Sun altitude
Exits shadow 04:22:01 25° 2° (N) 1,734 9.3 -29.8°
Maximum altitude 04:24:26 33° 43° (NE) 1,431 9.2 -29.4°
Drops below altitude 10° 04:29:40 10° 107° (ESE) 2,520 11.0 -28.5°
Sets 04:32:22 0° 117° (ESE) 3,450 11.8 -28.0°
